Weather in Cap-Haitien

Haiti     19°45′04″N   72°12′17″W
temp.,
°C
wind,
m/s
gust,
m/s
humid.,
%
clouds,
%
prec.,
mm/h
press.,
hPa
HPBL,
m
7 december, tue
tue701:00+25e45780 0.1 1017565
04:00+24e34820 0.0 1016446
07:00+24ese23830 0.0 1017255
10:00+26e57690 0.0 1019667
13:00+27nne55670 0.0 1016815
16:00+26ene34730 0.0 1015578
19:00+26ese45797 0.1 1016527
22:00+26ese47740 0.1 1017644
8 december, wed
wed801:00+24ese59800 0.1 1016637
04:00+23ese37822 0.0 1015528
07:00+23ese24800 0.0 1017375
10:00+25ene34700 0.0 1018428
13:00+26ne44660 0.0 1015556
16:00+27ne44731 0.0 1015642
19:00+26ene467717 1.8 1017473
22:00+26e45743 0.2 1017642
9 december, thu
thu901:00+24ese35740 0.2 1017453
04:00+23e46780 0.0 1016438
07:00+23se35810 0.0 1018393
10:00+25e35690 0.0 1019609
13:00+25nne45690 0.0 1017605
16:00+26ne556550 0.0 10161115
19:00+25ene567449 0.3 1017804
22:00+25ene787765 1.5 1018762
10 december, fri
fri1001:00+25e678033 2.4 1017698
04:00+23ese458543 0.6 1016436
07:00+24se358337 1.3 1017390
10:00+25ene577913 1.2 1018662
13:00+26ne777518 2.3 1015798
16:00+26ene78781 4.8 1015518
19:00+26ene89771 9.4 1016837
22:00+25e810782 2.4 1016818
11 december, sat
sat1101:00+24ese578310 4.3 1015603
04:00+23ese368413 0.2 1015469
07:00+23se36820 0.3 1016407
10:00+25e47743 0.0 1017686
13:00+27ne88732 0.1 1013801
16:00+26ene89764 0.3 1013681
19:00+26ene810800 1.2 1014616
22:00+25ese58762 0.5 1015673